• Em Portugal
  • Lista de países
  • Para 7 dias
  • Temperatura da água
  • Mapas de satélite
  • Mapa do tempo
  • Widgets de tempo
  • user-avatar
    Iniciar Sessão

    Previsão horária em Rio de Janeiro

    Hoje, 25 Fevereiro, Domingo

    Tempo Temperatura Precipitação Vento Pressão Humidade
    00:00 +24°C° 0 mm 1 m/s 760 mmHg 84%
    01:00 +24°C° 0 mm 1 m/s 760 mmHg 85%
    02:00 +24°C° 0 mm 1 m/s 759 mmHg 85%
    03:00 +24°C° 0 mm 1 m/s 759 mmHg 85%
    04:00 +24°C° 0 mm 1 m/s 759 mmHg 85%
    05:00 +24°C° 0 mm 1 m/s 759 mmHg 86%
    06:00 +24°C° 0 mm 1 m/s 759 mmHg 86%
    07:00 +26°C° 0 mm 1 m/s 759 mmHg 79%
    08:00 +27°C° 0 mm 1 m/s 760 mmHg 72%
    09:00 +29°C° 0 mm 1 m/s 760 mmHg 65%
    10:00 +30°C° 0 mm 1 m/s 760 mmHg 63%
    11:00 +31°C° 0 mm 2 m/s 760 mmHg 61%
    12:00 +32°C° 0 mm 2 m/s 760 mmHg 59%
    13:00 +31°C° 0,1 mm 2 m/s 759 mmHg 62%
    14:00 +31°C° 0,1 mm 3 m/s 759 mmHg 64%
    15:00 +30°C° 0,1 mm 3 m/s 759 mmHg 67%
    16:00 +29°C° 0,1 mm 3 m/s 758 mmHg 72%
    17:00 +29°C° 0,1 mm 3 m/s 758 mmHg 77%
    18:00 +28°C° 0,1 mm 3 m/s 758 mmHg 82%
    19:00 +27°C° 0,2 mm 3 m/s 759 mmHg 84%
    20:00 +27°C° 0,2 mm 3 m/s 759 mmHg 85%
    21:00 +26°C° 0,2 mm 3 m/s 759 mmHg 87%
    22:00 +26°C° 0 mm 2 m/s 759 mmHg 88%
    23:00 +26°C° 0 mm 2 m/s 759 mmHg 88%

    Amanhã, 26 Fevereiro, Segunda-feira

    Tempo Temperatura Precipitação Vento Pressão Humidade
    00:00 +25°C° 0 mm 2 m/s 759 mmHg 88%
    01:00 +25°C° 0 mm 2 m/s 759 mmHg 89%
    02:00 +25°C° 0 mm 2 m/s 759 mmHg 89%
    03:00 +25°C° 0 mm 2 m/s 758 mmHg 89%
    04:00 +25°C° 0 mm 2 m/s 758 mmHg 89%
    05:00 +25°C° 0 mm 2 m/s 758 mmHg 90%
    06:00 +25°C° 0 mm 2 m/s 758 mmHg 90%
    07:00 +26°C° 0 mm 2 m/s 759 mmHg 84%
    08:00 +28°C° 0 mm 1 m/s 759 mmHg 79%
    09:00 +29°C° 0 mm 1 m/s 759 mmHg 73%
    10:00 +31°C° 0 mm 1 m/s 759 mmHg 67%
    11:00 +32°C° 0 mm 2 m/s 759 mmHg 61%
    12:00 +35°C° 0 mm 2 m/s 758 mmHg 55%
    13:00 +34°C° 0,5 mm 2 m/s 758 mmHg 61%
    14:00 +33°C° 0,5 mm 3 m/s 757 mmHg 66%
    15:00 +31°C° 0,5 mm 3 m/s 756 mmHg 72%
    16:00 +30°C° 1,1 mm 3 m/s 756 mmHg 78%
    17:00 +29°C° 1,1 mm 3 m/s 756 mmHg 83%
    18:00 +27°C° 1,1 mm 3 m/s 756 mmHg 89%
    19:00 +27°C° 1,2 mm 3 m/s 757 mmHg 90%
    20:00 +27°C° 1,2 mm 3 m/s 757 mmHg 91%
    21:00 +27°C° 1,2 mm 3 m/s 758 mmHg 92%
    22:00 +26°C° 1,2 mm 2 m/s 758 mmHg 93%
    23:00 +26°C° 1,2 mm 2 m/s 758 mmHg 93%

    Depois de amanhã, 27 Fevereiro, Terça-feira

    Tempo Temperatura Precipitação Vento Pressão Humidade
    00:00 +26°C° 1,2 mm 2 m/s 758 mmHg 94%
    01:00 +26°C° 0,7 mm 1 m/s 758 mmHg 94%
    02:00 +26°C° 0,7 mm 1 m/s 757 mmHg 94%
    03:00 +25°C° 0,7 mm 1 m/s 757 mmHg 94%
    04:00 +25°C° 0,5 mm 1 m/s 757 mmHg 94%
    05:00 +25°C° 0,5 mm 1 m/s 757 mmHg 94%
    06:00 +25°C° 0,5 mm 1 m/s 757 mmHg 94%
    07:00 +25°C° 0,8 mm 2 m/s 757 mmHg 94%
    08:00 +25°C° 0,8 mm 2 m/s 758 mmHg 93%
    09:00 +26°C° 0,8 mm 2 m/s 758 mmHg 93%
    10:00 +27°C° 0,7 mm 2 m/s 758 mmHg 91%
    11:00 +28°C° 0,7 mm 2 m/s 758 mmHg 89%
    12:00 +29°C° 0,7 mm 1 m/s 757 mmHg 87%
    13:00 +29°C° 0,7 mm 1 m/s 757 mmHg 87%
    14:00 +29°C° 0,7 mm 1 m/s 756 mmHg 87%
    15:00 +29°C° 0,7 mm 1 m/s 755 mmHg 86%
    16:00 +28°C° 0,6 mm 1 m/s 756 mmHg 87%
    17:00 +28°C° 0,6 mm 2 m/s 756 mmHg 87%
    18:00 +28°C° 0,6 mm 2 m/s 756 mmHg 88%
    19:00 +27°C° 0,3 mm 2 m/s 756 mmHg 89%
    20:00 +27°C° 0,3 mm 2 m/s 757 mmHg 90%
    21:00 +27°C° 0,3 mm 2 m/s 757 mmHg 91%
    22:00 +26°C° 0,2 mm 2 m/s 757 mmHg 92%
    23:00 +26°C° 0,2 mm 2 m/s 757 mmHg 92%

    28 Fevereiro, Quarta-feira

    Tempo Temperatura Precipitação Vento Pressão Humidade
    00:00 +26°C° 0,2 mm 1 m/s 757 mmHg 93%
    01:00 +26°C° 0,1 mm 1 m/s 756 mmHg 93%
    02:00 +26°C° 0,1 mm 1 m/s 756 mmHg 92%
    03:00 +26°C° 0,1 mm 1 m/s 755 mmHg 92%
    04:00 +26°C° 0,2 mm 1 m/s 755 mmHg 92%
    05:00 +25°C° 0,2 mm 1 m/s 756 mmHg 92%
    06:00 +25°C° 0,2 mm 1 m/s 756 mmHg 91%
    07:00 +27°C° 0,1 mm 1 m/s 756 mmHg 85%
    08:00 +29°C° 0,1 mm 1 m/s 757 mmHg 79%
    09:00 +30°C° 0,1 mm 1 m/s 757 mmHg 73%
    10:00 +32°C° 0,2 mm 1 m/s 757 mmHg 69%
    11:00 +34°C° 0,2 mm 1 m/s 756 mmHg 64%
    12:00 +37°C° 0,2 mm 2 m/s 756 mmHg 60%
    13:00 +36°C° 0,8 mm 2 m/s 756 mmHg 64%
    14:00 +35°C° 0,8 mm 2 m/s 755 mmHg 67%
    15:00 +34°C° 0,8 mm 3 m/s 755 mmHg 71%
    16:00 +31°C° 0,7 mm 3 m/s 755 mmHg 75%
    17:00 +30°C° 0,7 mm 2 m/s 755 mmHg 79%
    18:00 +29°C° 0,7 mm 2 m/s 755 mmHg 83%
    19:00 +29°C° 0,8 mm 2 m/s 756 mmHg 84%
    20:00 +28°C° 0,8 mm 2 m/s 756 mmHg 85%
    21:00 +28°C° 0,8 mm 1 m/s 757 mmHg 86%
    22:00 +28°C° 0,3 mm 1 m/s 757 mmHg 87%
    23:00 +27°C° 0,3 mm 1 m/s 757 mmHg 88%

    1 Março, Quinta-feira

    Tempo Temperatura Precipitação Vento Pressão Humidade
    00:00 +27°C° 0,3 mm 1 m/s 757 mmHg 89%
    01:00 +27°C° 0,1 mm 1 m/s 757 mmHg 89%
    02:00 +27°C° 0,1 mm 1 m/s 756 mmHg 90%
    03:00 +27°C° 0,1 mm 1 m/s 756 mmHg 90%
    04:00 +27°C° 0,1 mm 1 m/s 756 mmHg 90%
    05:00 +26°C° 0,1 mm 1 m/s 757 mmHg 89%
    06:00 +26°C° 0,1 mm 1 m/s 757 mmHg 89%
    07:00 +28°C° 0,1 mm 1 m/s 757 mmHg 85%
    08:00 +29°C° 0,1 mm 1 m/s 758 mmHg 80%
    09:00 +30°C° 0,1 mm 1 m/s 758 mmHg 75%
    10:00 +31°C° 0,1 mm 1 m/s 758 mmHg 71%
    11:00 +32°C° 0,1 mm 1 m/s 757 mmHg 68%
    12:00 +33°C° 0,1 mm 1 m/s 757 mmHg 64%
    13:00 +34°C° 0,5 mm 2 m/s 756 mmHg 66%
    14:00 +34°C° 0,5 mm 2 m/s 756 mmHg 68%
    15:00 +34°C° 0,5 mm 3 m/s 756 mmHg 70%
    16:00 +33°C° 0,6 mm 3 m/s 756 mmHg 74%
    17:00 +31°C° 0,6 mm 2 m/s 756 mmHg 78%
    18:00 +30°C° 0,6 mm 2 m/s 756 mmHg 82%
    19:00 +29°C° 1 mm 2 m/s 757 mmHg 84%
    20:00 +28°C° 1 mm 2 m/s 757 mmHg 87%
    21:00 +28°C° 1 mm 1 m/s 757 mmHg 89%
    22:00 +28°C° 1,1 mm 1 m/s 757 mmHg 91%
    23:00 +27°C° 1,1 mm 1 m/s 757 mmHg 92%

    2 Março, Sexta-feira

    Tempo Temperatura Precipitação Vento Pressão Humidade
    00:00 +27°C° 1,1 mm 1 m/s 757 mmHg 93%
    01:00 +27°C° 0,8 mm 1 m/s 757 mmHg 94%
    02:00 +27°C° 0,8 mm 1 m/s 757 mmHg 94%
    03:00 +27°C° 0,8 mm 1 m/s 756 mmHg 94%
    04:00 +27°C° 0,4 mm 1 m/s 757 mmHg 94%
    05:00 +26°C° 0,4 mm 1 m/s 757 mmHg 94%
    06:00 +26°C° 0,4 mm 1 m/s 757 mmHg 93%
    07:00 +27°C° 0,3 mm 1 m/s 757 mmHg 89%
    08:00 +28°C° 0,3 mm 1 m/s 757 mmHg 85%
    09:00 +29°C° 0,3 mm 2 m/s 758 mmHg 80%
    10:00 +31°C° 0,2 mm 2 m/s 757 mmHg 75%
    11:00 +34°C° 0,2 mm 2 m/s 757 mmHg 69%
    12:00 +35°C° 0,2 mm 2 m/s 757 mmHg 63%
    13:00 +35°C° 0,8 mm 2 m/s 756 mmHg 66%
    14:00 +35°C° 0,8 mm 2 m/s 755 mmHg 69%
    15:00 +34°C° 0,8 mm 3 m/s 755 mmHg 72%
    16:00 +33°C° 1,5 mm 3 m/s 755 mmHg 77%
    17:00 +30°C° 1,5 mm 2 m/s 755 mmHg 83%
    18:00 +29°C° 1,5 mm 2 m/s 755 mmHg 88%
    19:00 +28°C° 1,4 mm 2 m/s 755 mmHg 89%
    20:00 +28°C° 1,4 mm 2 m/s 756 mmHg 89%
    21:00 +28°C° 1,4 mm 2 m/s 756 mmHg 90%
    22:00 +28°C° 1 mm 1 m/s 756 mmHg 90%
    23:00 +27°C° 1 mm 1 m/s 756 mmHg 90%
    Mostrar mais